Helicity
22 23 21 13 22 31 22 38 67 49 82 115 123 111 98 147 112 109 45 32 32 33 27 24 14 10 19 20 38 29 22 19 21 25 18 12 11 14 30 24 29 35 44 52 57 66 55 41 34
33 36 27 37 17 12 24 39 30 60 112 113 117 111 93 112 105 107 87 63 49 39 21 19 15 16 23 47 60 48 36 31 30 33 28 19 12 22 36 36 35 43 59 61 68 64 60 54 47
24 43 35 24 3 4 38 28 62 82 100 101 112 116 117 107 96 104 87 58 47 37 23 38 29 26 34 29 67 60 42 32 28 28 34 28 20 31 38 38 39 51 61 66 74 67 69 71 62
32 34 37 41 20 26 32 61 92 92 90 106 112 102 90 87 85 97 68 44 27 31 21 63 29 56 42 44 60 62 44 34 31 28 29 37 46 50 35 41 48 58 66 80 74 79 72 78 66
64 64 46 54 44 47 25 48 95 98 94 76 79 93 89 67 71 79 79 51 34 28 25 40 35 52 34 36 49 60 56 44 39 29 25 36 37 57 66 44 40 63 78 86 91 88 85 75 59
52 67 75 60 45 57 52 60 83 87 83 79 60 56 76 69 75 85 80 63 51 38 34 44 34 34 37 33 49 58 62 51 35 39 36 41 40 45 46 52 48 71 76 84 83 85 73 65 52
31 22 5 56 66 64 61 88 70 72 69 59 95 59 76 59 90 96 89 94 68 48 41 43 39 36 44 58 53 56 48 48 40 39 38 39 44 46 52 58 61 69 70 70 80 84 86 64 54
63 62 33 16 35 47 58 80 105 79 85 106 88 47 54 62 85 90 96 102 85 63 50 41 44 45 37 46 43 46 41 43 44 39 42 39 46 45 46 56 65 69 74 81 84 91 93 67 62
68 53 30 29 27 49 64 58 86 118 108 109 85 86 104 68 93 102 98 93 84 61 45 43 44 46 46 37 46 48 42 45 47 47 44 44 29 43 59 51 83 58 71 81 91 99 99 86 73
49 61 37 63 59 51 68 79 96 78 88 97 88 82 87 64 63 69 69 62 57 44 39 38 29 28 28 36 41 36 47 40 43 40 46 25 42 42 40 75 66 62 68 78 81 116 108 33 60
89 46 46 57 41 59 64 69 97 80 72 75 76 69 74 52 38 40 40 41 36 37 42 38 34 41 47 48 64 60 55 59 55 43 50 54 46 69 49 67 74 80 81 91 97 110 68 84 82
73 43 29 56 78 75 59 86 66 65 48 108 97 96 70 54 44 34 33 26 33 28 20 27 30 34 34 50 50 61 61 60 55 47 52 58 66 51 64 71 70 88 107 97 101 95 94 122 91
63 47 44 19 35 46 46 34 27 21 32 55 64 65 53 47 46 32 33 34 39 33 30 32 35 28 34 39 45 52 52 54 54 61 64 66 72 76 84 71 74 70 95 105 126 104 132 140 113
101 58 41 56 24 33 41 15 44 31 15 24 52 44 47 49 48 40 52 35 31 26 39 40 37 33 33 29 49 58 57 55 56 57 61 60 76 84 93 99 94 82 76 110 147 155 163 172 157
78 48 35 37 31 29 46 7 45 27 12 31 54 38 34 34 38 45 34 25 23 39 44 49 43 34 32 32 42 55 54 59 65 71 72 66 77 81 76 81 82 86 84 133 185 191 197 224 179
64 67 68 95 78 74 58 11 50 70 60 64 63 52 43 39 37 38 31 32 48 52 48 63 64 40 38 52 57 63 70 77 69 78 84 76 76 80 95 107 110 141 148 184 172 164 239 248 198
92 79 57 59 76 103 79 67 59 79 87 85 65 58 46 41 42 35 35 26 53 62 68 76 79 63 52 69 87 93 92 96 100 102 96 75 63 67 107 114 150 151 196 229 228 226 197 282 359
52 40 44 69 82 83 89 37 47 46 40 37 46 61 68 43 30 36 49 55 76 86 80 84 93 89 86 96 111 134 140 135 142 121 104 83 65 58 77 102 151 178 182 177 170 166 194 270 345
64 75 64 48 56 65 57 44 14 42 44 25 22 25 48 55 36 83 111 101 113 107 110 101 101 97 101 120 135 137 138 133 127 110 100 73 73 73 79 96 102 172 152 148 140 158 201 297 417
53 45 42 43 58 58 30 44 41 40 26 21 22 15 29 62 99 145 138 142 122 115 115 113 103 102 109 128 132 133 115 96 94 103 96 79 94 78 65 77 91 122 165 125 165 182 198 309 364
65 51 36 53 60 43 20 24 17 29 32 36 44 41 54 69 118 165 172 168 155 135 134 119 100 97 93 100 126 123 116 95 101 97 98 81 70 55 61 68 48 58 146 162 90 105 121 181 204
57 43 37 47 56 64 69 45 93 35 34 49 41 32 47 89 131 183 223 209 160 153 141 125 101 95 95 93 94 94 92 78 76 77 66 58 33 34 40 42 26 58 139 121 183 97 142 162 219
59 88 68 84 89 81 71 70 33 43 70 58 104 69 90 114 119 158 193 198 169 139 127 119 108 93 83 80 68 83 63 69 74 65 27 29 35 27 23 40 49 74 93 72 83 59 112 153 209
132 93 77 78 105 134 45 78 52 51 29 63 41 88 58 54 93 135 158 164 142 137 128 128 113 96 73 56 62 39 41 58 36 19 6 37 35 15 15 37 43 81 10 -23 -3 65 119 148 188
127 186 123 84 166 142 174 97 73 54 49 43 90 72 33 54 65 99 120 128 120 124 124 105 91 93 73 81 52 41 67 64 38 44 36 43 23 15 16 10 3 3 10 29 70 92 95 148 205
125 163 260 113 53 44 156 84 76 110 117 129 64 31 38 50 88 96 108 116 115 106 103 92 86 90 84 82 37 57 73 51 55 52 58 56 33 27 25 19 5 -2 -5 21 68 91 96 158 193
187 214 136 146 200 173 108 101 52 50 57 36 -29 13 59 102 77 70 79 82 81 76 78 78 69 80 88 56 43 76 66 70 77 93 87 70 53 42 42 53 54 37 26 25 27 95 121 121 146
103 102 279 320 193 146 94 56 115 135 61 94 21 23 60 114 77 59 60 63 57 61 73 71 66 68 72 55 56 92 72 89 95 99 99 80 71 63 70 64 53 46 55 52 58 86 105 152 129
148 246 249 204 208 127 73 64 58 127 132 87 56 33 42 44 54 51 48 48 45 44 50 61 66 67 70 61 80 94 89 108 110 101 98 80 66 63 68 78 82 71 65 55 87 106 115 182 279
205 164 156 257 160 137 116 111 68 160 224 139 151 24 3 23 32 36 39 39 36 34 37 56 58 57 57 63 75 78 76 77 100 85 64 63 83 90 94 108 131 94 104 85 86 104 174 251 294
Wind_Speed
39 38 34 35 38 38 44 40 38 27 27 27 26 29 29 35 36 34 20 13 13 11 13 14 13 15 17 21 20 22 23 24 25 26 25 25 25 25 25 26 26 26 26 29 32 34 37 37 37
33 32 34 34 40 43 43 36 32 23 26 17 18 23 27 32 31 23 17 15 11 9 8 11 14 16 15 18 19 21 23 24 24 24 25 25 25 25 25 24 24 25 25 26 29 33 35 36 36
29 30 34 35 39 45 40 35 30 25 13 17 24 31 31 27 25 21 24 13 10 7 4 3 10 6 8 13 19 20 21 22 23 23 23 23 24 24 25 24 23 23 24 25 27 30 32 34 35
29 32 35 50 32 39 38 37 27 20 13 28 27 28 27 30 23 26 16 11 8 7 5 4 6 4 8 12 14 15 18 20 23 24 25 25 24 24 23 22 22 23 23 24 26 28 31 32 32
28 25 16 32 48 49 44 38 31 24 26 26 27 28 29 24 24 21 15 10 11 8 7 2 0 4 7 7 9 12 15 16 17 19 20 21 21 21 21 19 19 21 22 23 25 26 28 29 30
17 21 19 23 29 39 44 37 32 31 30 28 29 30 31 24 22 19 14 12 13 10 10 6 7 1 3 5 5 9 12 13 13 17 17 18 19 18 18 18 16 18 19 21 23 24 26 26 27
15 12 5 22 39 42 33 35 28 30 33 33 33 37 35 26 21 17 13 15 13 12 13 15 12 11 13 11 7 8 13 13 13 14 17 16 16 15 15 15 14 16 17 18 20 21 23 24 25
19 21 11 11 28 36 30 29 34 23 30 35 34 39 40 25 19 16 15 14 13 14 15 15 14 13 14 14 12 11 14 13 13 14 16 16 16 15 15 14 13 14 14 16 17 18 20 21 22
20 15 5 12 12 27 27 24 22 28 31 31 35 39 35 21 19 16 16 17 16 17 15 15 17 20 19 17 13 16 16 14 14 14 15 17 16 15 15 16 14 13 13 14 14 15 17 18 20
11 15 13 21 23 27 34 31 24 16 13 29 36 37 34 19 20 19 21 23 19 16 13 13 15 17 16 17 18 17 17 15 15 14 16 14 18 17 20 20 19 16 13 13 13 12 13 13 18
18 19 17 24 26 31 30 30 24 20 10 21 27 30 27 26 26 25 27 27 19 17 17 13 16 19 19 19 20 19 18 20 21 19 18 21 21 21 18 20 19 19 17 16 13 12 13 19 20
19 18 15 31 30 31 29 29 28 18 25 36 42 38 31 30 29 21 26 25 17 18 18 19 17 17 19 22 19 20 20 20 20 19 19 20 22 23 22 24 23 21 20 18 15 18 19 22 22
12 20 22 21 28 35 33 29 26 20 38 44 46 41 28 30 32 31 23 24 23 22 21 17 14 14 15 14 17 19 20 20 21 20 20 22 25 26 27 28 27 26 24 23 21 18 20 18 22
32 26 21 25 24 28 33 32 29 36 37 25 33 43 38 26 22 30 28 26 21 22 22 19 17 15 15 17 20 21 22 21 21 22 23 23 28 30 30 30 31 30 30 27 26 25 22 21 22
38 40 37 32 24 23 33 39 33 31 25 30 42 48 38 32 19 23 22 20 21 20 20 17 17 17 17 19 20 21 23 22 22 23 24 25 27 29 29 32 33 34 32 27 23 22 23 30 22
37 37 37 31 26 26 21 39 39 33 27 31 41 42 46 37 29 23 27 30 26 21 15 14 16 14 15 17 21 25 25 24 24 26 27 26 25 26 28 32 35 35 33 28 27 23 26 29 28
36 49 39 43 33 34 23 39 35 31 36 50 47 40 36 40 35 32 28 27 22 20 17 15 16 17 17 19 25 27 26 25 26 27 28 26 23 24 29 33 34 33 35 31 29 31 29 29 26
53 49 48 44 42 39 38 38 51 56 59 58 59 48 40 40 37 33 27 26 26 22 19 19 19 18 21 25 27 26 27 28 27 28 25 21 22 22 24 28 29 31 33 30 30 28 28 28 30
52 55 62 55 48 59 56 56 69 67 66 58 62 61 48 41 40 29 26 23 21 20 20 19 18 19 25 29 24 26 30 28 26 29 23 20 21 19 19 23 24 29 34 34 32 30 29 29 26
49 57 62 69 62 55 62 71 81 82 73 64 61 69 59 48 37 33 26 23 20 18 19 19 21 25 28 27 29 32 28 26 25 26 20 17 18 14 13 13 14 22 32 35 32 26 29 30 14
55 57 63 67 71 72 72 79 68 59 52 50 53 58 59 50 37 32 26 21 18 19 19 20 23 27 26 26 27 26 25 27 22 22 16 12 9 7 7 11 4 7 22 39 30 25 27 24 28
62 65 67 67 65 66 49 76 71 65 63 56 58 52 46 40 40 28 26 22 18 16 16 20 24 26 25 21 19 17 20 20 22 19 10 11 7 7 5 5 7 8 3 41 23 30 21 12 18
48 54 61 62 67 74 68 69 68 51 64 40 42 44 38 37 28 18 18 17 13 11 13 19 22 23 22 17 15 17 18 19 21 18 14 12 13 8 19 18 17 13 5 10 19 17 13 12 12
48 46 59 66 71 79 80 65 74 56 46 46 43 42 36 28 17 10 9 9 9 10 13 17 20 22 18 17 19 17 16 17 18 15 12 14 14 10 7 8 12 22 33 13 14 8 10 13 12
43 55 64 69 68 91 63 69 78 56 46 61 63 46 37 22 9 3 7 7 7 6 12 15 16 19 18 20 21 19 19 18 16 15 14 13 13 12 9 7 7 15 33 37 4 8 10 14 24
46 54 60 74 78 86 59 80 64 38 43 55 51 45 30 19 9 5 5 4 3 6 11 11 13 16 19 21 21 21 19 18 18 17 15 15 13 13 18 17 12 6 2 5 17 19 29 26 25
49 66 61 78 68 80 73 66 56 39 41 47 55 43 30 17 11 6 5 3 4 7 10 10 12 15 19 19 20 22 21 21 21 20 20 17 18 19 19 18 18 22 16 18 24 21 27 25 31
60 46 62 66 79 77 69 70 61 50 54 60 50 36 23 18 13 8 5 4 6 9 10 11 12 15 17 18 20 22 21 22 23 24 25 22 22 24 23 23 28 22 22 15 15 23 24 29 25
65 70 64 66 76 81 76 61 38 32 45 49 38 28 21 18 16 12 9 8 9 10 10 10 12 14 17 19 21 21 22 23 25 27 29 29 27 28 24 25 35 42 29 21 15 13 14 20 16
67 71 66 85 84 86 76 55 20 25 30 28 19 17 20 23 21 14 10 8 9 10 11 12 14 14 17 20 22 23 23 22 23 26 29 31 31 26 24 32 48 55 40 29 18 3 8 16 16
Wind_Direction
293 292 308 308 294 294 287 294 299 303 301 305 309 303 308 305 303 314 351 39 17 69 88 104 98 85 76 81 56 40 38 36 26 25 24 21 21 27 30 31 33 36 41 35 37 26 22 16 14
314 304 299 305 291 288 293 302 300 310 313 329 333 325 317 314 317 336 355 352 32 68 78 98 108 101 83 76 67 59 55 47 43 47 37 37 38 38 34 31 32 33 45 35 25 24 27 19 11
311 309 297 300 293 285 296 308 308 311 339 327 318 314 316 323 334 343 335 9 41 57 14 50 107 72 51 60 81 65 51 55 55 39 38 30 32 41 41 47 42 40 42 35 23 19 19 21 17
304 299 302 275 307 307 309 318 318 319 320 308 314 317 326 327 335 334 353 12 20 33 354 326 117 84 71 74 79 57 47 58 78 75 68 68 63 60 52 56 55 57 46 33 23 18 17 16 17
313 324 342 308 292 291 300 308 309 305 308 307 307 311 317 339 350 351 356 348 328 348 347 354 63 102 94 71 77 52 47 51 45 40 38 56 51 61 62 59 51 47 43 38 30 20 17 17 15
28 351 334 315 311 308 304 301 301 298 301 304 303 307 312 335 338 350 7 334 318 322 318 314 295 331 60 7 40 33 24 19 28 8 15 25 34 42 42 45 39 41 34 31 29 27 25 21 17
42 48 111 328 310 308 314 305 303 293 293 295 306 300 310 319 332 350 346 333 322 318 310 299 293 294 299 315 336 3 346 350 354 356 354 9 20 26 36 36 32 29 25 24 29 30 25 24 22
25 4 34 21 332 316 324 316 304 301 293 296 297 300 303 317 331 334 332 328 323 317 307 302 301 299 301 304 310 327 331 336 341 340 343 348 352 357 0 4 11 14 20 16 12 19 20 21 20
17 10 95 7 15 339 333 328 326 311 301 295 294 301 313 327 324 324 314 308 310 309 308 306 301 297 300 303 307 310 316 323 330 332 332 336 339 342 344 339 343 349 356 1 7 6 5 7 13
49 2 0 347 337 332 320 318 329 332 318 301 296 298 308 319 308 304 296 292 298 303 305 308 304 304 306 308 308 309 314 318 319 322 325 322 325 326 323 324 322 328 332 336 340 350 359 10 351
1 340 350 334 330 325 322 318 323 321 301 309 307 307 308 300 298 295 290 289 297 303 302 303 302 302 303 305 309 313 314 314 312 312 316 317 318 321 317 320 315 314 314 318 320 322 324 325 331
334 332 334 331 329 320 317 320 314 305 299 306 300 306 302 296 293 291 288 289 298 300 303 305 304 304 305 309 311 313 311 312 314 313 312 312 310 310 312 310 309 307 304 303 299 299 305 306 312
316 328 331 327 323 315 312 305 302 297 298 296 296 298 303 295 286 283 285 288 293 296 305 310 312 309 313 316 320 319 317 315 315 314 309 306 305 306 305 303 303 299 295 291 287 289 299 300 300
333 331 328 326 320 317 308 305 305 306 300 294 293 291 293 291 279 278 281 280 286 294 302 309 313 310 313 314 316 317 319 318 318 318 316 310 309 306 303 300 297 295 292 287 281 284 288 291 293
320 317 317 312 310 307 317 303 291 299 294 300 294 286 290 290 274 269 273 273 283 290 299 306 312 313 315 318 321 321 320 321 321 320 318 314 311 309 305 301 297 292 289 285 282 280 281 281 289
321 319 317 326 330 326 322 308 316 317 311 304 299 288 284 286 281 272 274 279 283 287 293 304 309 314 315 320 321 321 322 321 322 321 319 315 314 311 304 300 297 293 284 280 276 271 276 278 276
309 305 310 315 316 314 302 309 314 320 312 301 301 296 286 282 280 277 273 276 280 285 292 296 302 304 309 316 318 316 319 318 317 319 316 318 319 314 307 301 298 294 285 278 271 274 271 268 275
304 304 306 307 312 308 303 297 297 297 298 296 291 292 287 282 278 274 272 276 281 283 284 292 297 304 310 313 315 317 315 314 315 312 314 317 319 316 309 303 295 290 286 279 273 269 272 268 269
300 301 300 303 307 303 298 298 295 294 293 293 287 283 283 279 279 274 273 273 278 281 282 285 292 303 308 310 314 314 310 311 309 307 310 316 319 316 311 305 295 286 278 274 271 269 268 271 263
291 295 296 298 301 299 301 296 292 287 289 289 287 279 279 276 272 271 266 265 271 275 282 286 295 302 307 313 316 317 319 316 310 309 311 314 319 321 317 312 296 283 273 270 263 256 267 271 226
287 289 294 295 297 298 298 295 294 296 298 294 291 285 279 276 266 265 258 255 263 274 283 292 300 306 312 317 321 323 328 330 323 315 317 323 331 333 327 319 153 181 269 263 266 256 261 258 246
288 289 290 294 296 295 303 294 291 293 292 291 290 289 284 281 274 263 251 252 258 275 291 300 305 313 320 326 328 330 332 333 328 332 342 344 17 19 77 82 122 124 260 260 258 254 257 236 205
293 293 291 291 290 291 288 291 291 294 290 290 301 301 293 286 280 254 243 241 253 278 297 306 315 322 329 341 346 340 335 336 337 347 357 353 2 49 132 115 121 132 182 239 248 242 235 220 212
297 295 296 291 286 281 283 280 286 288 288 285 296 303 299 300 288 253 233 229 253 287 306 314 323 328 346 357 350 346 342 336 333 350 8 10 0 35 18 63 97 111 140 141 158 182 221 231 254
276 287 293 292 283 278 287 279 275 291 287 281 283 288 296 302 297 196 185 216 253 285 312 324 334 339 360 4 3 7 5 352 354 7 13 17 22 10 24 28 50 127 153 160 224 226 218 249 266
270 275 280 288 285 277 287 272 283 298 291 280 285 288 290 290 278 233 205 219 263 312 325 344 352 359 6 7 8 14 16 359 358 9 14 11 13 356 322 320 324 329 246 251 285 275 273 274 273
275 270 279 276 282 279 277 282 290 294 291 290 285 282 274 263 255 217 185 237 305 326 334 355 12 15 15 21 26 26 15 357 353 1 351 357 346 337 326 314 304 299 295 287 285 284 276 281 278
260 275 273 269 270 272 276 272 273 286 292 287 283 275 259 242 237 221 230 265 313 329 342 353 11 16 26 26 37 27 23 13 359 350 341 347 341 325 319 309 294 294 293 289 281 284 283 282 283
263 262 268 269 263 264 268 276 283 290 296 288 280 265 248 233 232 234 251 278 304 322 341 352 356 14 24 20 38 37 31 18 2 352 344 341 337 323 310 300 286 274 284 288 286 287 288 291 294
271 269 256 258 258 258 264 268 281 294 302 308 293 275 248 239 237 242 257 280 308 318 330 336 337 9 19 26 41 45 47 51 39 13 5 2 352 351 330 299 275 259 270 277 281 299 312 295 283